{"data":{"norad_id":69798,"intl_designator":"1998-067YN","name":"ISS OBJECT YN","alt_names":[],"object_type":"PAYLOAD","status":"ACTIVE","operator":null,"country":"TBD","launch_date":"1998-11-20","launch_site_code":"TYMSC","launch_vehicle":null,"mission":null,"orbit_class":"UNKNOWN","rcs_meters":null,"size_class":null,"mass_kg":null,"dimensions":null,"purposes":[],"wikipedia_slug":null,"has_3d_model":false,"image_url":null,"decayed_at":null,"tle_current":{"epoch":"2026-09-18T05:01:40.130400Z","epoch_age_seconds":219569,"freshness":"STALE","line1":"1 69798U 98067YN  26261.20949225  .00028200  00000+0  43598-3 0  9992","line2":"2 69798  51.6306 198.2402 0009209 172.5035 187.6094 15.53816284 12091","mean_motion":15.53816284,"eccentricity":0.0009209,"inclination_deg":51.6306,"raan_deg":198.2402,"arg_perigee_deg":172.5035,"mean_anomaly_deg":187.6094,"bstar":0.00043598,"rev_number":1209,"period_min":92.675048834795,"perigee_km":399.34859047827,"apogee_km":411.84286942029,"semimajor_km":6783.7327299493,"source":"CELESTRAK","updated_at":"2026-09-20T09:00:25.118232Z"}}}